ATLAS 2AS CENTAUR R/B

Satellite information

Favourite Embed

Satellite Type and Status

ROCKET BODYIN ORBIT

Key statistics

Satellite ATLAS 2AS CENTAUR R/B at a glance.

Uptime

8863

Days in orbit

Revolutions

≈ 13.5

Per day

Orbit

LEO

Low Earth Orbit

Inclination

63.4

Latest

Satellite identification and parameters

Extended collection of information and parameters for ATLAS 2AS CENTAUR R/B.

Object identification

Identified? True

Debris? False

Object name: ATLAS 2AS CENTAUR R/B

International designator: 2001-040B

Object number (NORAD): 26906

Object ID (CCSDS): 26906

Country: UNITED STATES OF AMERICA (US)

Current information (Y/N): Y

RCS size: LARGE

Orbital parameters

Period: 107.055 minutes

Inclination: 63.4237 deg

SMA: 7468.482 km

Apoapsis: 1547.686 km

Periapsis: 633.007 km

RAAN: 277.2186 deg

Eccentricy: 0.0612359

Argument of periapsis: 341.2875 deg

Mean anomaly: 16.649 deg

Mean motion: 13.45099121 rev/day

Mean motion (dot): 0.00000705 rev/day2

B* drag term: 0.00043266788 1/REarth

Two-line elements (TLE)

Creation date: Dec. 14, 2025, 3:07 a.m.

Reference frame: TEME

Reference center: EARTH

Epoch: Dec. 13, 2025, 12:47 p.m. UTC

TLE line 0: 0 ATLAS 2AS CENTAUR R/B

TLE line 1: 1 26906U 01040B 25347.53282302 .00000705 00000-0 43267-3 0 9991

TLE line 2: 2 26906 63.4237 277.2186 0612359 341.2875 16.6490 13.45099121 78432

Live tracking on map

Real-time ground track for satellite ATLAS 2AS CENTAUR R/B.

In-orbit conjunctions

A list of the most updated potential collisions computed for object ATLAS 2AS CENTAUR R/B.

Target Orbit TCA Probability of collision Miss distance Type
DELTA 1 DEB SSO 2025-09-05 17:32:04 0.0001202605 208.0 (m) DEBRIS
COSMOS 1635 LEO 2025-01-10 03:44:36 0.0001264596 214.0 (m) PAYLOAD
DELTA 1 R/B(1) LEO 2024-10-29 16:50:17 0.0006530232 181.0 (m) ROCKET BODY
CZ-2D DEB SSO 2024-07-18 08:00:45 0.0002496571 715.0 (m) DEBRIS
CZ-6A DEB SSO 2024-06-28 00:17:47 0.0002181845 774.0 (m) DEBRIS

Associated space launch

NOSS-3 (Naval Ocean Surveillance System), which is likely not the official designation, is the third generation of NOSS satellites, which are low orbit SIGINT satellites. In 2013, the designation Intruder leaked out. These satellites carry equipment to track ships and aircraft via their radio transmissions. Positions of the origin of the transmissions are determined by triangulation. Each launch consists of two satellites of similar size in the same orbit. Both satellites maneuver to stationkeep relative to one another.

ATLAS 2AS CENTAUR R/B was lifted into orbit during the mission ‘Atlas IIAS | NROL-13’, on board a Atlas IIAS space rocket.

The launch took place on Sept. 8, 2001, 3:25 p.m. from Space Launch Complex 3E.

For more information about the launch, click the button.

Launch to space Atlas IIAS | NROL-13
Atlas IIAS | NROL-13

Agency: N/A

Status: Launch Successful

Launch date: Sept. 8, 2001, 3:25 p.m. UTC

Rocket: Atlas IIAS

Launch pad: Space Launch Complex 3E

Location: Vandenberg SFB, CA, USA

...

Latest news about this satellite

There are no fresh news available about this satellite. Check back as we update our databases every day.


Newsletter sign-up

Weekly statistics, charts and insights to help you stay on top of the space industry.